This is the latest recevied weather packets stored in our database for station/object F5PHW-13. If no packets are shown the sender has not sent any weather packets the latest 10 day(s).
| Time | Temp. | Humidity | Pressure | Rain* | Wind** | Luminosity | Snow |
|---|---|---|---|---|---|---|---|
| 1777709481 | 13.33° C | 88% | 1014.5 hPa | 1.02 mm | - | - | - |
| 1777708281 | 13.89° C | 88% | 1014.3 hPa | 0.51 mm | - | - | - |
| 1777707082 | 13.33° C | 88% | 1013.1 hPa | 0 mm | - | - | - |
| 1777705880 | 13.33° C | 88% | 1012.3 hPa | 0 mm | - | - | - |
| 1777704680 | 12.78° C | 88% | 1012.2 hPa | 0 mm | - | - | - |
| 1777703481 | 12.78° C | 88% | 1012.4 hPa | 0 mm | - | - | - |
| 1777702281 | 12.78° C | 88% | 1012.9 hPa | 0.25 mm | - | - | - |
| 1777701081 | 12.78° C | 87% | 1013.4 hPa | 0.76 mm | - | - | - |
| 1777699880 | 12.78° C | 87% | 1013.5 hPa | 0.76 mm | - | - | - |
| 1777698679 | 12.78° C | 87% | 1013.9 hPa | 0.25 mm | - | - | - |
| 1777697480 | 12.78° C | 86% | 1014.3 hPa | 0 mm | - | - | - |
| 1777696282 | 12.78° C | 86% | 1014.2 hPa | 0.76 mm | - | - | - |
| 1777695080 | 12.78° C | 86% | 1014.6 hPa | 1.78 mm | - | - | - |
| 1777693881 | 12.78° C | 85% | 1015.2 hPa | 3.56 mm | - | - | - |
| 1777692680 | 12.78° C | 85% | 1015.5 hPa | 3.56 mm | - | - | - |
| 1777691479 | 12.78° C | 84% | 1015.4 hPa | 2.79 mm | - | - | - |
| 1777690280 | 12.78° C | 83% | 1015.7 hPa | 0.51 mm | - | - | - |
| 1777689080 | 12.78° C | 83% | 1015.9 hPa | 0 mm | - | - | - |
| 1777687880 | 12.78° C | 83% | 1015.7 hPa | 0 mm | - | - | - |
| 1777686679 | 12.78° C | 83% | 1015.8 hPa | 0 mm | - | - | - |
| 1777685479 | 12.78° C | 82% | 1016 hPa | 0 mm | - | - | - |
| 1777684281 | 12.78° C | 82% | 1016.4 hPa | 0 mm | - | - | - |
| 1777683080 | 13.33° C | 82% | 1016.7 hPa | 0 mm | - | - | - |
| 1777681881 | 13.33° C | 82% | 1017.1 hPa | 0 mm | - | - | - |
| 1777680680 | 13.89° C | 82% | 1017.4 hPa | 0 mm | - | - | - |
* Rain latest hour (hover to see other rain measurements)
** Current wind speed in m/s (hover to see current wind gust speed)